| time (UTC) | temp F | wind direction | speed MPH | gust MPH | rain 1hr in | rain 24hr in | rain mn in | humidity % | barometer mb |
| 20260902031828 | 82 | 90 | 0.0 | 0.0 | 0.00 | 0.00 | 0.00 | 63 | 1014.0 |
| 20260902031331 | 82 | 90 | 0.0 | 0.0 | 0.00 | 0.00 | 0.00 | 62 | 1013.9 |
| 20260902030818 | 82 | 90 | 0.0 | 0.0 | 0.00 | 0.00 | 0.00 | 62 | 1013.9 |
| 20260902030319 | 82 | 90 | 0.0 | 0.0 | 0.00 | 0.00 | 0.00 | 62 | 1013.9 |
| 20260902025851 | 83 | 90 | 0.0 | 2.0 | 0.00 | 0.00 | 0.00 | 62 | 1013.8 |
| 20260902025333 | 83 | 90 | 1.0 | 3.0 | 0.00 | 0.00 | 0.00 | 61 | 1013.8 |
| 20260902024820 | 83 | 90 | 1.0 | 3.0 | 0.00 | 0.00 | 0.00 | 61 | 1013.8 |
| 20260902024323 | 83 | 90 | 2.0 | 3.0 | 0.00 | 0.00 | 0.00 | 61 | 1013.7 |
| 20260902023824 | 83 | 90 | 1.0 | 3.0 | 0.00 | 0.00 | 0.00 | 61 | 1013.6 |
| 20260902023339 | 83 | 90 | 2.0 | 3.0 | 0.00 | 0.00 | 0.00 | 60 | 1013.6 |
| 20260902022845 | 83 | 90 | 2.0 | 2.0 | 0.00 | 0.00 | 0.00 | 60 | 1013.5 |
| 20260902022325 | 84 | 90 | 0.0 | 0.0 | 0.00 | 0.00 | 0.00 | 60 | 1013.4 |
| 20260902021829 | 84 | 90 | 0.0 | 0.0 | 0.00 | 0.00 | 0.00 | 60 | 1013.4 |
| 20260902021333 | 84 | 90 | 0.0 | 2.0 | 0.00 | 0.00 | 0.00 | 59 | 1013.4 |
| 20260902020818 | 84 | 90 | 0.0 | 3.0 | 0.00 | 0.00 | 0.00 | 59 | 1013.2 |
| 20260902020323 | 84 | 90 | 1.0 | 3.0 | 0.00 | 0.00 | 0.00 | 59 | 1013.1 |
| 20260902015826 | 85 | 90 | 1.0 | 4.0 | 0.00 | 0.00 | 0.00 | 59 | 1013.0 |
| 20260902015330 | 85 | 89 | 2.0 | 4.0 | 0.00 | 0.00 | 0.00 | 58 | 1013.0 |
| 20260902014817 | 85 | 96 | 2.0 | 6.0 | 0.00 | 0.00 | 0.00 | 58 | 1013.0 |
| 20260902014350 | 85 | 100 | 3.0 | 7.0 | 0.00 | 0.00 | 0.00 | 58 | 1013.0 |
| 20260902013836 | 85 | 105 | 2.0 | 7.0 | 0.00 | 0.00 | 0.00 | 57 | 1013.0 |
| 20260902013322 | 85 | 105 | 3.0 | 7.0 | 0.00 | 0.00 | 0.00 | 57 | 1013.0 |
| 20260902012829 | 86 | 94 | 3.0 | 8.0 | 0.00 | 0.00 | 0.00 | 57 | 1013.0 |
| 20260902012336 | 86 | 111 | 5.0 | 8.0 | 0.00 | 0.00 | 0.00 | 57 | 1013.0 |
| 20260902011839 | 86 | 121 | 3.0 | 9.0 | 0.00 | 0.00 | 0.00 | 56 | 1012.9 |
| 20260902011323 | 86 | 118 | 5.0 | 9.0 | 0.00 | 0.00 | 0.00 | 56 | 1013.0 |
| 20260902010829 | 86 | 105 | 4.0 | 9.0 | 0.00 | 0.00 | 0.00 | 56 | 1013.0 |
| 20260902010334 | 87 | 72 | 6.0 | 12.0 | 0.00 | 0.00 | 0.00 | 55 | 1013.1 |
| 20260902005846 | 87 | 102 | 5.0 | 12.0 | 0.00 | 0.00 | 0.00 | 55 | 1013.0 |
| 20260902005326 | 87 | 86 | 7.0 | 12.0 | 0.00 | 0.00 | 0.00 | 55 | 1013.0 |
| 20260902004833 | 87 | 89 | 8.0 | 12.0 | 0.00 | 0.00 | 0.00 | 54 | 1012.9 |
| 20260902004338 | 88 | 115 | 6.0 | 16.0 | 0.00 | 0.00 | 0.00 | 54 | 1012.8 |
| 20260902003823 | 88 | 115 | 8.0 | 16.0 | 0.00 | 0.00 | 0.00 | 53 | 1012.7 |
| 20260902003327 | 88 | 120 | 6.0 | 13.0 | 0.00 | 0.00 | 0.00 | 53 | 1012.6 |
| 20260902002835 | 89 | 98 | 8.0 | 13.0 | 0.00 | 0.00 | 0.00 | 53 | 1012.6 |
| 20260902002321 | 89 | 92 | 5.0 | 18.0 | 0.00 | 0.00 | 0.00 | 53 | 1012.6 |
| 20260902001828 | 89 | 136 | 6.0 | 18.0 | 0.00 | 0.00 | 0.00 | 52 | 1012.6 |
| 20260902001329 | 90 | 111 | 7.0 | 15.0 | 0.00 | 0.00 | 0.00 | 52 | 1012.5 |
| 20260902000902 | 90 | 109 | 8.0 | 15.0 | 0.00 | 0.00 | 0.00 | 52 | 1012.5 |
| 20260902000344 | 91 | 86 | 7.0 | 17.0 | 0.00 | 0.00 | 0.00 | 51 | 1012.3 |
| 20260901235824 | 91 | 138 | 9.0 | 16.0 | 0.00 | 0.00 | 0.00 | 51 | 1012.3 |
| 20260901235325 | 92 | 108 | 8.0 | 21.0 | 0.00 | 0.00 | 0.00 | 51 | 1012.3 |
| 20260901234850 | 92 | 135 | 9.0 | 21.0 | 0.00 | 0.00 | 0.00 | 51 | 1012.2 |
| 20260901234334 | 93 | 140 | 11.0 | 21.0 | 0.00 | 0.00 | 0.00 | 51 | 1012.2 |
| 20260901233845 | 94 | 132 | 11.0 | 20.0 | 0.00 | 0.00 | 0.00 | 51 | 1012.2 |
| 20260901233329 | 95 | 117 | 9.0 | 20.0 | 0.00 | 0.00 | 0.00 | 51 | 1012.1 |
| 20260901232836 | 95 | 101 | 8.0 | 13.0 | 0.00 | 0.00 | 0.00 | 51 | 1012.1 |
| 20260901232320 | 95 | 96 | 6.0 | 11.0 | 0.00 | 0.00 | 0.00 | 51 | 1012.0 |
| 20260901231826 | 95 | 118 | 6.0 | 9.0 | 0.00 | 0.00 | 0.00 | 52 | 1012.1 |
| 20260901231333 | 95 | 84 | 5.0 | 11.0 | 0.00 | 0.00 | 0.00 | 52 | 1012.1 |
| 20260901230822 | 95 | 126 | 7.0 | 11.0 | 0.00 | 0.00 | 0.00 | 52 | 1012.1 |
| 20260901230327 | 95 | 80 | 4.0 | 11.0 | 0.00 | 0.00 | 0.00 | 52 | 1012.1 |
| 20260901225836 | 95 | 90 | 5.0 | 12.0 | 0.00 | 0.00 | 0.00 | 52 | 1012.1 |
| 20260901225322 | 95 | 113 | 7.0 | 13.0 | 0.00 | 0.00 | 0.00 | 52 | 1012.1 |
| 20260901224827 | 95 | 84 | 7.0 | 11.0 | 0.00 | 0.00 | 0.00 | 52 | 1012.1 |
| 20260901224334 | 95 | 80 | 5.0 | 11.0 | 0.00 | 0.00 | 0.00 | 52 | 1012.1 |
| 20260901223819 | 95 | 63 | 4.0 | 10.0 | 0.00 | 0.00 | 0.00 | 52 | 1012.2 |
| 20260901223322 | 95 | 126 | 2.0 | 7.0 | 0.00 | 0.00 | 0.00 | 52 | 1012.2 |
| 20260901222831 | 95 | 74 | 3.0 | 4.0 | 0.00 | 0.00 | 0.00 | 52 | 1012.3 |
| 20260901222318 | 95 | 73 | 3.0 | 5.0 | 0.00 | 0.00 | 0.00 | 52 | 1012.3 |
| 20260901221824 | 95 | 72 | 3.0 | 7.0 | 0.00 | 0.00 | 0.00 | 52 | 1012.2 |
| 20260901221351 | 95 | 92 | 4.0 | 7.0 | 0.00 | 0.00 | 0.00 | 52 | 1012.3 |
| 20260901220837 | 95 | 65 | 4.0 | 9.0 | 0.00 | 0.00 | 0.00 | 53 | 1012.3 |
| 20260901220323 | 95 | 75 | 4.0 | 9.0 | 0.00 | 0.00 | 0.00 | 53 | 1012.3 |
| 20260901215855 | 95 | 51 | 5.0 | 9.0 | 0.00 | 0.00 | 0.00 | 53 | 1012.3 |
| 20260901215320 | 95 | 55 | 5.0 | 9.0 | 0.00 | 0.00 | 0.00 | 53 | 1012.3 |
| 20260901214827 | 95 | 38 | 3.0 | 9.0 | 0.00 | 0.00 | 0.00 | 53 | 1012.4 |
| 20260901214332 | 95 | 49 | 4.0 | 12.0 | 0.00 | 0.00 | 0.00 | 53 | 1012.4 |
| 20260901213821 | 95 | 51 | 8.0 | 12.0 | 0.00 | 0.00 | 0.00 | 53 | 1012.4 |
| 20260901213328 | 95 | 49 | 7.0 | 12.0 | 0.00 | 0.00 | 0.00 | 54 | 1012.4 |
| 20260901212832 | 96 | 121 | 6.0 | 12.0 | 0.00 | 0.00 | 0.00 | 54 | 1012.4 |
| 20260901212319 | 96 | 111 | 6.0 | 15.0 | 0.00 | 0.00 | 0.00 | 54 | 1012.4 |
| 20260901211826 | 96 | 55 | 5.0 | 14.0 | 0.00 | 0.00 | 0.00 | 54 | 1012.4 |
| 20260901211326 | 96 | 60 | 6.0 | 15.0 | 0.00 | 0.00 | 0.00 | 55 | 1012.5 |
| 20260901210834 | 97 | 77 | 9.0 | 15.0 | 0.00 | 0.00 | 0.00 | 55 | 1012.5 |
| 20260901210345 | 97 | 93 | 9.0 | 15.0 | 0.00 | 0.00 | 0.00 | 56 | 1012.5 |
| 20260901205847 | 97 | 32 | 6.0 | 16.0 | 0.00 | 0.00 | 0.00 | 56 | 1012.6 |
| 20260901205350 | 97 | 69 | 7.0 | 16.0 | 0.00 | 0.00 | 0.00 | 56 | 1012.8 |
| 20260901204835 | 96 | 87 | 6.0 | 13.0 | 0.00 | 0.00 | 0.00 | 57 | 1012.8 |
| 20260901204347 | 96 | 69 | 9.0 | 15.0 | 0.00 | 0.00 | 0.00 | 57 | 1013.1 |
| 20260901203820 | 96 | 96 | 8.0 | 17.0 | 0.00 | 0.00 | 0.00 | 57 | 1013.1 |
| 20260901203333 | 97 | 41 | 10.0 | 17.0 | 0.00 | 0.00 | 0.00 | 58 | 1013.2 |
| 20260901202837 | 96 | 65 | 6.0 | 15.0 | 0.00 | 0.00 | 0.00 | 59 | 1013.2 |
| 20260901202321 | 96 | 107 | 4.0 | 16.0 | 0.00 | 0.00 | 0.00 | 59 | 1013.4 |
| 20260901201845 | 96 | 85 | 8.0 | 16.0 | 0.00 | 0.00 | 0.00 | 59 | 1013.5 |
| 20260901201328 | 96 | 85 | 7.0 | 14.0 | 0.00 | 0.00 | 0.00 | 60 | 1013.6 |
| 20260901200839 | 96 | 104 | 8.0 | 18.0 | 0.00 | 0.00 | 0.00 | 61 | 1013.6 |
| 20260901200341 | 95 | 69 | 9.0 | 18.0 | 0.00 | 0.00 | 0.00 | 61 | 1013.5 |
| 20260901195824 | 95 | 69 | 6.0 | 16.0 | 0.00 | 0.00 | 0.00 | 61 | 1013.5 |
| 20260901195325 | 95 | 54 | 7.0 | 16.0 | 0.00 | 0.00 | 0.00 | 61 | 1013.5 |
| 20260901194835 | 94 | 104 | 4.0 | 10.0 | 0.00 | 0.00 | 0.00 | 62 | 1013.6 |
| 20260901194343 | 94 | 80 | 5.0 | 10.0 | 0.00 | 0.00 | 0.00 | 62 | 1013.6 |
| 20260901193825 | 94 | 63 | 7.0 | 10.0 | 0.00 | 0.00 | 0.00 | 62 | 1013.7 |
| 20260901193329 | 94 | 59 | 5.0 | 8.0 | 0.00 | 0.00 | 0.00 | 63 | 1013.7 |
| 20260901192835 | 94 | 41 | 3.0 | 10.0 | 0.00 | 0.00 | 0.00 | 63 | 1013.8 |
| 20260901192321 | 94 | 61 | 3.0 | 13.0 | 0.00 | 0.00 | 0.00 | 64 | 1013.7 |
| 20260901191843 | 94 | 19 | 7.0 | 13.0 | 0.00 | 0.00 | 0.00 | 64 | 1013.7 |
| 20260901191349 | 94 | 119 | 5.0 | 12.0 | 0.00 | 0.00 | 0.00 | 65 | 1013.7 |
| 20260901190831 | 94 | 144 | 3.0 | 13.0 | 0.00 | 0.00 | 0.00 | 66 | 1013.8 |
| 20260901190336 | 93 | 101 | 6.0 | 14.0 | 0.00 | 0.00 | 0.00 | 66 | 1014.0 |
| 20260901185822 | 93 | 55 | 8.0 | 14.0 | 0.00 | 0.00 | 0.00 | 66 | 1013.9 |
| 20260901185327 | 92 | 53 | 8.0 | 14.0 | 0.00 | 0.00 | 0.00 | 67 | 1014.1 |
| 20260901184826 | 92 | 52 | 8.0 | 12.0 | 0.00 | 0.00 | 0.00 | 67 | 1014.2 |
| 20260901184403 | 92 | 105 | 7.0 | 10.0 | 0.00 | 0.00 | 0.00 | 67 | 1014.2 |
| 20260901183825 | 93 | 53 | 2.0 | 10.0 | 0.00 | 0.00 | 0.00 | 68 | 1014.4 |
| 20260901183347 | 92 | 30 | 4.0 | 8.0 | 0.00 | 0.00 | 0.00 | 68 | 1014.5 |
| 20260901182858 | 92 | 66 | 1.0 | 12.0 | 0.00 | 0.00 | 0.00 | 69 | 1014.5 |
| 20260901182321 | 92 | 5 | 7.0 | 12.0 | 0.00 | 0.00 | 0.00 | 69 | 1014.8 |
| 20260901181827 | 92 | 5 | 6.0 | 12.0 | 0.00 | 0.00 | 0.00 | 69 | 1014.8 |
| 20260901181332 | 92 | 360 | 6.0 | 12.0 | 0.00 | 0.00 | 0.00 | 69 | 1014.9 |
| 20260901180820 | 93 | 64 | 4.0 | 10.0 | 0.00 | 0.00 | 0.00 | 70 | 1015.0 |
| 20260901180327 | 92 | 81 | 5.0 | 11.0 | 0.00 | 0.00 | 0.00 | 71 | 1015.0 |
| 20260901175836 | 92 | 52 | 6.0 | 14.0 | 0.00 | 0.00 | 0.00 | 71 | 1015.2 |
| 20260901175340 | 92 | 42 | 8.0 | 14.0 | 0.00 | 0.00 | 0.00 | 72 | 1015.3 |
| 20260901174821 | 92 | 40 | 3.0 | 12.0 | 0.00 | 0.00 | 0.00 | 72 | 1015.4 |
| 20260901174329 | 92 | 94 | 7.0 | 14.0 | 0.00 | 0.00 | 0.00 | 73 | 1015.5 |
| 20260901173336 | 91 | 92 | 8.0 | 13.0 | 0.00 | 0.00 | 0.00 | 74 | 1015.6 |
| 20260901172824 | 90 | 87 | 9.0 | 13.0 | 0.00 | 0.00 | 0.00 | 74 | 1015.7 |
| 20260901172326 | 90 | 76 | 9.0 | 13.0 | 0.00 | 0.00 | 0.00 | 74 | 1015.6 |
| 20260901171830 | 90 | 83 | 7.0 | 11.0 | 0.00 | 0.00 | 0.00 | 74 | 1015.8 |
| 20260901171334 | 91 | 69 | 4.0 | 8.0 | 0.00 | 0.00 | 0.00 | 75 | 1015.9 |
| 20260901170820 | 91 | 343 | 3.0 | 10.0 | 0.00 | 0.00 | 0.00 | 75 | 1015.9 |
| 20260901170332 | 91 | 78 | 5.0 | 9.0 | 0.00 | 0.00 | 0.00 | 76 | 1016.0 |
| 20260901165838 | 90 | 53 | 3.0 | 10.0 | 0.00 | 0.00 | 0.00 | 76 | 1016.1 |
| 20260901165342 | 90 | 71 | 6.0 | 13.0 | 0.00 | 0.00 | 0.00 | 77 | 1016.1 |
| 20260901164848 | 90 | 50 | 2.0 | 14.0 | 0.00 | 0.00 | 0.00 | 77 | 1016.1 |
| 20260901164329 | 90 | 91 | 5.0 | 14.0 | 0.00 | 0.00 | 0.00 | 77 | 1016.1 |
| 20260901163904 | 90 | 347 | 2.0 | 11.0 | 0.00 | 0.00 | 0.00 | 78 | 1016.1 |
| 20260901163329 | 89 | 13 | 5.0 | 11.0 | 0.00 | 0.00 | 0.00 | 79 | 1016.2 |
| 20260901162847 | 89 | 67 | 3.0 | 8.0 | 0.00 | 0.00 | 0.00 | 78 | 1016.2 |
| 20260901162327 | 89 | 86 | 3.0 | 10.0 | 0.00 | 0.00 | 0.00 | 78 | 1016.3 |
| 20260901161833 | 89 | 54 | 4.0 | 9.0 | 0.00 | 0.00 | 0.00 | 79 | 1016.3 |
| 20260901161344 | 89 | 133 | 2.0 | 9.0 | 0.00 | 0.00 | 0.00 | 79 | 1016.3 |
| 20260901160827 | 88 | 96 | 4.0 | 8.0 | 0.00 | 0.00 | 0.00 | 80 | 1016.3 |
| 20260901160328 | 88 | 101 | 4.0 | 8.0 | 0.00 | 0.00 | 0.00 | 80 | 1016.5 |
| 20260901155834 | 88 | 263 | 2.0 | 8.0 | 0.00 | 0.00 | 0.00 | 80 | 1016.4 |
| 20260901155336 | 87 | 336 | 4.0 | 8.0 | 0.00 | 0.00 | 0.00 | 80 | 1016.4 |
| 20260901154821 | 87 | 346 | 2.0 | 6.0 | 0.00 | 0.00 | 0.00 | 81 | 1016.4 |
| 20260901154326 | 87 | 63 | 1.0 | 8.0 | 0.00 | 0.00 | 0.00 | 80 | 1016.4 |
| 20260901153828 | 87 | 34 | 5.0 | 8.0 | 0.00 | 0.00 | 0.00 | 80 | 1016.5 |
| 20260901153333 | 87 | 34 | 2.0 | 6.0 | 0.00 | 0.00 | 0.00 | 81 | 1016.5 |
| 20260901152819 | 87 | 37 | 4.0 | 6.0 | 0.00 | 0.00 | 0.00 | 81 | 1016.5 |
| 20260901152349 | 86 | 360 | 3.0 | 6.0 | 0.00 | 0.00 | 0.00 | 81 | 1016.4 |
| 20260901151829 | 86 | 273 | 0.0 | 5.0 | 0.00 | 0.00 | 0.00 | 81 | 1016.4 |
| 20260901151335 | 86 | 306 | 3.0 | 7.0 | 0.00 | 0.00 | 0.00 | 81 | 1016.4 |
| 20260901150820 | 85 | 341 | 1.0 | 6.0 | 0.00 | 0.00 | 0.00 | 81 | 1016.4 |
| 20260901150322 | 85 | 167 | 1.0 | 6.0 | 0.00 | 0.00 | 0.00 | 81 | 1016.4 |
| 20260901145855 | 84 | 280 | 3.0 | 7.0 | 0.00 | 0.00 | 0.00 | 81 | 1016.4 |
| 20260901145356 | 84 | 347 | 1.0 | 4.0 | 0.00 | 0.00 | 0.00 | 81 | 1016.5 |
| 20260901144819 | 84 | 298 | 2.0 | 6.0 | 0.00 | 0.00 | 0.00 | 81 | 1016.5 |
| 20260901144322 | 84 | 296 | 3.0 | 8.0 | 0.00 | 0.00 | 0.00 | 81 | 1016.5 |
| 20260901143830 | 84 | 306 | 2.0 | 8.0 | 0.00 | 0.00 | 0.00 | 81 | 1016.6 |
| 20260901143334 | 83 | 306 | 2.0 | 6.0 | 0.00 | 0.00 | 0.00 | 81 | 1016.6 |
| 20260901142841 | 83 | 348 | 2.0 | 6.0 | 0.00 | 0.00 | 0.00 | 80 | 1016.7 |
| 20260901142321 | 83 | 43 | 2.0 | 5.0 | 0.00 | 0.00 | 0.00 | 81 | 1016.7 |
| 20260901141830 | 82 | 310 | 2.0 | 5.0 | 0.00 | 0.00 | 0.00 | 80 | 1016.7 |
| 20260901141334 | 82 | 305 | 2.0 | 5.0 | 0.00 | 0.00 | 0.00 | 80 | 1016.6 |
| 20260901140838 | 81 | 35 | 2.0 | 4.0 | 0.00 | 0.00 | 0.00 | 80 | 1016.6 |
| 20260901140323 | 81 | 360 | 1.0 | 4.0 | 0.00 | 0.00 | 0.00 | 80 | 1016.7 |
| 20260901135830 | 80 | 5 | 1.0 | 4.0 | 0.00 | 0.00 | 0.00 | 80 | 1016.7 |
| 20260901135330 | 80 | 49 | 1.0 | 3.0 | 0.00 | 0.00 | 0.00 | 80 | 1016.7 |
| 20260901134833 | 80 | 49 | 0.0 | 3.0 | 0.00 | 0.00 | 0.00 | 79 | 1016.7 |
| 20260901134317 | 79 | 50 | 0.0 | 3.0 | 0.00 | 0.00 | 0.00 | 79 | 1016.8 |
| 20260901133823 | 79 | 50 | 0.0 | 3.0 | 0.00 | 0.00 | 0.00 | 79 | 1016.8 |
| 20260901133325 | 78 | 50 | 1.0 | 2.0 | 0.00 | 0.00 | 0.00 | 79 | 1016.8 |
| 20260901132838 | 78 | 50 | 0.0 | 3.0 | 0.00 | 0.00 | 0.00 | 79 | 1016.8 |
| 20260901132343 | 78 | 50 | 1.0 | 4.0 | 0.00 | 0.00 | 0.00 | 79 | 1016.8 |
| 20260901131827 | 77 | 51 | 1.0 | 4.0 | 0.00 | 0.00 | 0.00 | 78 | 1016.8 |
| 20260901131329 | 77 | 51 | 1.0 | 3.0 | 0.00 | 0.00 | 0.00 | 78 | 1016.7 |
| 20260901125906 | 76 | 40 | 2.0 | 3.0 | 0.00 | 0.00 | 0.00 | 78 | 1016.5 |
| 20260901125325 | 75 | 35 | 1.0 | 3.0 | 0.00 | 0.00 | 0.00 | 78 | 1016.5 |
| 20260901124828 | 75 | 21 | 1.0 | 3.0 | 0.00 | 0.00 | 0.00 | 77 | 1016.4 |
| 20260901124333 | 75 | 21 | 1.0 | 3.0 | 0.00 | 0.00 | 0.00 | 77 | 1016.3 |
| 20260901123819 | 75 | 21 | 2.0 | 4.0 | 0.00 | 0.00 | 0.00 | 77 | 1016.3 |
| 20260901123321 | 74 | 22 | 3.0 | 4.0 | 0.00 | 0.00 | 0.00 | 77 | 1016.2 |
| 20260901122856 | 74 | 32 | 1.0 | 3.0 | 0.00 | 0.00 | 0.00 | 76 | 1016.3 |
| 20260901122318 | 75 | 32 | 0.0 | 0.0 | 0.00 | 0.00 | 0.00 | 76 | 1016.2 |
| 20260901121826 | 75 | 32 | 0.0 | 0.0 | 0.00 | 0.00 | 0.00 | 76 | 1016.1 |
| 20260901121330 | 75 | 32 | 0.0 | 0.0 | 0.00 | 0.00 | 0.00 | 76 | 1016.0 |
| 20260901120837 | 75 | 32 | 0.0 | 0.0 | 0.00 | 0.00 | 0.00 | 76 | 1016.0 |
| 20260901120343 | 75 | 32 | 0.0 | 0.0 | 0.00 | 0.00 | 0.00 | 76 | 1015.9 |
| 20260901115855 | 75 | 133 | 0.0 | 0.0 | 0.00 | 0.00 | 0.00 | 75 | 1015.9 |
| 20260901115317 | 75 | 135 | 0.0 | 0.0 | 0.00 | 0.00 | 0.00 | 75 | 1015.8 |
| 20260901114821 | 75 | 135 | 0.0 | 0.0 | 0.00 | 0.00 | 0.00 | 75 | 1015.7 |
| 20260901114326 | 75 | 135 | 0.0 | 0.0 | 0.00 | 0.00 | 0.00 | 75 | 1015.7 |
| 20260901113835 | 75 | 135 | 0.0 | 0.0 | 0.00 | 0.00 | 0.00 | 75 | 1015.6 |
| 20260901113340 | 75 | 136 | 0.0 | 0.0 | 0.00 | 0.00 | 0.00 | 75 | 1015.6 |
| 20260901112834 | 75 | 136 | 0.0 | 0.0 | 0.00 | 0.00 | 0.00 | 75 | 1015.5 |
| 20260901112341 | 75 | 136 | 0.0 | 0.0 | 0.00 | 0.00 | 0.00 | 75 | 1015.5 |
| 20260901111827 | 75 | 136 | 0.0 | 0.0 | 0.00 | 0.00 | 0.00 | 75 | 1015.6 |
| 20260901111334 | 75 | 135 | 0.0 | 0.0 | 0.00 | 0.00 | 0.00 | 74 | 1015.5 |
| 20260901110822 | 75 | 135 | 0.0 | 0.0 | 0.00 | 0.00 | 0.00 | 74 | 1015.3 |
| 20260901110327 | 76 | 135 | 0.0 | 0.0 | 0.00 | 0.00 | 0.00 | 74 | 1015.4 |
| 20260901105903 | 76 | 135 | 0.0 | 0.0 | 0.00 | 0.00 | 0.00 | 74 | 1015.4 |